Weather in Mahibadhoo

Maldives     3°45′27″N   72°58′06″E
temp.,
°C
wind,
m/s
gust,
m/s
humid.,
%
clouds,
%
prec.,
mm/h
press.,
hPa
HPBL,
m
18 may, tue
tue1823:00+29w67733 1.2 1010979
02:00+29wsw67738 0.0 1008990
05:00+29wsw677517 0.0 1008914
08:00+29wsw677534 0.0 1010948
11:00+29w677441 0.0 1010993
14:00+29w777416 0.1 10071043
17:00+29w67741 0.2 1008945
20:00+29w677573 0.3 1010804
19 may, wed
wed1923:00+29w667785 0.8 1011741
02:00+29w56746 0.5 1008891
05:00+29wsw567510 0.5 1008918
08:00+29wsw56744 0.4 1010937
11:00+29wsw56713 0.4 10101021
14:00+29wsw567222 0.0 10081003
17:00+29w6672100 0.1 10081040
20:00+29w56733 0.1 1010961
20 may, thu
thu2023:00+29w557344 0.2 1010906
02:00+29w6675100 0.4 1008877
05:00+29w667574 1.2 1009884
08:00+29wsw667467 0.6 1011944
11:00+29w667392 0.6 10111023
14:00+29w667391 0.5 1009847
17:00+29w667396 0.8 10091009
20:00+29w567326 0.1 1010931
21 may, fri
fri2123:00+29w667282 0.7 1011996
02:00+29w667172 0.1 1009998
05:00+29w6672100 0.1 10091001
08:00+29w55729 0.0 1011897
11:00+29wsw557118 0.0 10111005
14:00+29wsw567262 0.4 1009907
17:00+29wsw567081 1.5 10091003
20:00+28wsw567654 0.6 1011577
22 may, sat
sat2223:00+28wsw557699 1.9 1011563
02:00+29wsw5674100 0.7 1009867
05:00+29wsw6774100 0.9 1009915
08:00+29wsw6773100 0.3 1011979
11:00+29wsw6673100 0.3 1011976
14:00+29wsw6774100 0.0 1009977
17:00+29wsw677398 0.2 10081056
20:00+29wsw677496 0.6 1010895